Saint Cloud, MN

5:12 AM CST on February 24, 2017 (GMT -0600)
Saint Cloud Regional

Weather History for KSTC - October, 2014

Change the Weather History Date:

Monday, October 13, 2014

  Actual Average Record
Temperature  
Mean Temperature 51 °F 47 °F  
Max Temperature 54 °F 58 °F 83 °F (1956)
Min Temperature 48 °F 36 °F 10 °F (1917)
Degree Days  
Heating Degree Days 14 18  
Month to date heating degree days 228 205  
Since 1 July heating degree days 389 491  
Cooling Degree Days 0 0  
Month to date cooling degree days 0 0  
Year to date cooling degree days 597 463  
Growing Degree Days 2 (Base 50)    
Moisture  
Dew Point 49 °F    
Average Humidity 87    
Maximum Humidity 96    
Minimum Humidity 77    
Precipitation  
Precipitation 0.12 in 0.09 in 1.23 in (1981)
Month to date precipitation 0.45 1.21  
Year to date precipitation 33.88 24.25  
Snow  
Snow 0.00 in 0.00 in 0.30 in (1997)
Month to date snowfall 0.0 0.1  
Since 1 July snowfall 0.0 0.1  
Since 1 September snowfall 0.0 0.1  
Snow Depth 0.00 in    
Sea Level Pressure  
Sea Level Pressure 29.82 in    
Wind  
Wind Speed 7 mph (North)    
Max Wind Speed 14 mph    
Max Gust Speed 21 mph    
Visibility 6 miles    
Events Rain    
T = Trace of Precipitation, MM = Missing Value Source: NWS Daily Summary

Daily Weather History Graph

Daily Weather History Graph

Search for Another Location

Airport or City:

Trip Planner

Search our weather history database for the weather conditions in past years. The results will help you decide how hot, cold, wet, or windy it might be!

Date:

Astronomy

Oct. 13, 2014 Rise Set
Actual Time 7:29 AM CDT 6:34 PM CDT
Civil Twilight 7:00 AM CDT 7:03 PM CDT
Nautical Twilight 6:25 AM CDT 7:38 PM CDT
Astronomical Twilight 5:51 AM CDT 8:12 PM CDT
Moon 10:36 PM CDT (10/13) 12:54 PM CDT (10/13)
Length of Visible Light 12h 03m
Length of Day
11h 04m
Waning Gibbous, 70% of the Moon is Illuminated
Oct 13
Waning Gibbous
Oct 15
Last Quarter
Oct 23
New
Oct 30
First Quarter
Nov 6
Full

Hourly Weather History & Observations

Time (CDT) Temp. Dew Point Humidity Pressure Visibility Wind Dir Wind Speed Gust Speed Precip Events Conditions
12:53 AM 54.0 °F 46.0 °F 75% 29.79 in 10.0 mi SSE 9.2 mph - N/A   Clear
1:53 AM 54.0 °F 48.0 °F 80% 29.79 in 9.0 mi South 8.1 mph - N/A   Clear
2:53 AM 53.1 °F 48.0 °F 83% 29.79 in 9.0 mi South 8.1 mph - N/A   Clear
3:53 AM 53.1 °F 48.0 °F 83% 29.77 in 8.0 mi SSE 6.9 mph - N/A   Clear
4:53 AM 53.1 °F 48.0 °F 83% 29.77 in 8.0 mi SE 5.8 mph - N/A   Clear
5:53 AM 53.1 °F 48.0 °F 83% 29.79 in 8.0 mi SSE 9.2 mph - N/A   Clear
6:53 AM 52.0 °F 48.0 °F 86% 29.79 in 7.0 mi SSE 5.8 mph - N/A   Clear
7:33 AM 52.0 °F 48.0 °F 86% 29.76 in 2.5 mi South 4.6 mph - N/A   Mist
7:53 AM 52.0 °F 48.0 °F 86% 29.81 in 2.5 mi SSE 4.6 mph - N/A   Mist
8:00 AM 52.0 °F 48.0 °F 86% 29.77 in 2.5 mi SSE 3.5 mph - N/A   Overcast
8:53 AM 52.0 °F 48.9 °F 89% 29.82 in 2.5 mi South 3.5 mph - 0.01 in Rain Light Rain
8:56 AM 51.8 °F 48.2 °F 88% 29.78 in 1.5 mi South 3.5 mph - N/A Rain Light Rain
9:28 AM 52.0 °F 50.0 °F 93% 29.79 in 0.8 mi South 3.5 mph - 0.05 in Rain Light Rain
9:44 AM 52.0 °F 50.0 °F 93% 29.79 in 1.0 mi Calm Calm - 0.06 in Rain Light Rain
9:53 AM 52.0 °F 50.0 °F 93% 29.83 in 1.0 mi Calm Calm - 0.07 in Rain Light Rain
10:53 AM 52.0 °F 50.0 °F 93% 29.84 in 1.8 mi Calm Calm - 0.02 in   Mist
10:57 AM 53.1 °F 50.0 °F 89% 29.81 in 2.0 mi Calm Calm - N/A   Overcast
11:26 AM 53.1 °F 50.0 °F 89% 29.81 in 3.0 mi SW 3.5 mph - 0.00 in Rain Light Rain
11:53 AM 54.0 °F 50.0 °F 86% 29.84 in 4.0 mi Calm Calm - 0.00 in   Overcast
11:55 AM 54.0 °F 50.0 °F 86% 29.81 in 4.0 mi Calm Calm - N/A   Overcast
12:53 PM 54.0 °F 50.0 °F 86% 29.83 in 4.0 mi NNW 3.5 mph - N/A   Overcast
1:00 PM 54.0 °F 51.1 °F 90% 29.79 in 4.0 mi NNW 4.6 mph - N/A   Clear
1:08 PM 54.0 °F 50.0 °F 86% 29.79 in 5.0 mi NNW 3.5 mph - N/A   Overcast
1:43 PM 54.0 °F 50.0 °F 86% 29.80 in 2.0 mi North 5.8 mph - N/A   Clear
1:53 PM 54.0 °F 51.1 °F 90% 29.83 in 1.5 mi North 4.6 mph - N/A   Clear
2:07 PM 54.0 °F 51.1 °F 90% 29.79 in 1.5 mi North 6.9 mph - N/A   Overcast
2:53 PM 53.6 °F 51.8 °F 94% 29.80 in 2.5 mi North 10.4 mph - N/A Rain Light Rain
3:00 PM 54.0 °F 51.1 °F 90% 29.80 in 2.5 mi NNW 8.1 mph - 0.01 in   Overcast
3:18 PM 53.1 °F 50.0 °F 89% 29.81 in 3.0 mi NNW 9.2 mph - 0.01 in   Overcast
3:26 PM 53.6 °F 50.0 °F 88% 29.81 in 2.5 mi NNW 11.5 mph 17.3 mph N/A   Overcast
3:51 PM 53.6 °F 48.2 °F 82% 29.83 in 4.0 mi North 11.5 mph - 0.01 in   Overcast
3:53 PM 53.1 °F 48.9 °F 86% 29.86 in 3.0 mi North 9.2 mph - 0.01 in   Overcast
4:53 PM 52.0 °F 48.9 °F 89% 29.86 in 10.0 mi North 11.5 mph - 0.00 in   Overcast
5:49 PM 51.8 °F 48.2 °F 88% 29.83 in 10.0 mi North 10.4 mph - N/A   Overcast
5:53 PM 52.0 °F 48.0 °F 86% 29.86 in 10.0 mi North 11.5 mph 18.4 mph N/A   Overcast
6:16 PM 52.0 °F 48.0 °F 86% 29.83 in 10.0 mi North 10.4 mph - N/A   Overcast
6:23 PM 52.0 °F 48.0 °F 86% 29.83 in 10.0 mi North 9.2 mph - N/A   Overcast
6:53 PM 52.0 °F 46.9 °F 83% 29.86 in 10.0 mi North 8.1 mph - N/A   Overcast
7:45 PM 51.1 °F 46.0 °F 83% 29.84 in 10.0 mi North 9.2 mph - N/A   Scattered Clouds
7:53 PM 51.1 °F 46.0 °F 83% 29.88 in 10.0 mi North 8.1 mph - N/A   Scattered Clouds
8:00 PM 51.1 °F 46.0 °F 83% 29.84 in 10.0 mi North 9.2 mph - N/A   Mostly Cloudy
8:53 PM 51.1 °F 46.0 °F 83% 29.88 in 10.0 mi North 10.4 mph - N/A   Overcast
9:53 PM 51.8 °F 46.4 °F 82% 29.85 in 10.0 mi North 10.4 mph - N/A   Mostly Cloudy
10:42 PM 51.1 °F 46.0 °F 83% 29.84 in 10.0 mi North 8.1 mph - N/A   Scattered Clouds
10:53 PM 50.0 °F 46.0 °F 86% 29.88 in 10.0 mi North 6.9 mph - N/A   Clear
11:53 PM 48.9 °F 45.0 °F 86% 29.88 in 10.0 mi North 5.8 mph - N/A   Clear